SL-8 DEB *, 3965

Orbit data source: Space-Track

SL-8 DEB *, 3965 is space debris in LEO originally from a launch on Mon, 15 Mar 1965 UTC launched from the Tyuratam Missile And Space Complex (TTMTR). Debris objects in space refer to the collection of defunct objects orbiting the Earth. Examples of debris include non-operational satellites, rocket bodies, and fragments generated from explosions, collisions, or faulty payload assembly.

Loading next visibility...
Identifier
3965, 1965-020EY
Orbit
LEO
Country
Flag of CISCIS
Related business
Manufacturer
Unknown
Mission
Spacecraft
Bus & Motor
Unknown
Mass
Unknown
Launch date (UTC)
1965-03-15 (61 years ago)
Launch vehicle
Unknown
Launch site
Tyuratam Missile And Space Complex (TTMTR)
Object type
Payload
Rocket body
Debris
Shape & HBR
Unknown shape, 0.1 m
Radar Cross Section
Small (<0.1 m²)

Expand to show TLE details & history
Last TLE update: 2 days ago

TLE from 2 days ago
0 SL-8 DEB *
1 03965U 65020EY  25287.21741953  .00000684  00000-0  60680-2 0  9992
2 03965  56.2996 318.7371 0261223 343.7287  86.8634 12.27541372719165
Epoch: 2025-10-14T05:13Z
TLE epoch observation values (Epoch: 2025-10-14T05:13:05.047Z)
Latitude
53.07061°
Longitude
-80.53601°
Altitude
1,560.891 km
Speed
7.095 km/s
True Right ascension
01h 22m 58s
True Declination
52° 55' 19"
Sunlit
Object was in full shadow at epoch
Visualization orbit readout
Latitude
Unknown
Longitude
Unknown
Altitude
Unknown
Speed
Unknown
Apparent Right ascension
Unknown
Apparent Declination
Unknown
Sunlit
N/A
Visualization observer readout
Local Sidereal Time
08:31:05
Azimuth
Unknown
Elevation
Unknown
Doppler factor
Unknown
Orbital elements
Apogee altitude
1,767.009 km
Perigee altitude
1,352.302 km
Semi-major axis
7,937.792 km
Eccentricity
0.02612
Inclination
56.2996°
RAAN
318.7371°
Arg. of periapsis
343.7287°
True anomaly
89.8563°
Mean anomaly
86.8634°
Eccentric anomaly
88.35948°
Mean motion
3.06898 °/min
Orbital period
117.3 mins
BSTAR
0.006068
Loading maneuver chart data...
Computing Atmospheric mass density...

Documentation

Showing up to 5 results
|